Regional Weather Roundup
Issued by NWS Charleston, SC

Current Version | Previous Version | Graphics & Text | Print | Product List | Glossary On
Versions: 1 2 3 4 5 6 7 8 9 10 11 12 13 14 15 16 17 18 19 20 21 22 23 24 25 26 27 28 29 30 31 32 33 34 35 36 37 38 39 40 41 42 43 44 45 46 47 48 49 50
000
ASUS42 KCHS 311712
RWRCHS

REGIONAL WEATHER ROUNDUP
NATIONAL WEATHER SERVICE CHARLESTON SC
100 PM EDT FRI JUL 31 2015

NOTE: "FAIR" INDICATES FEW OR NO CLOUDS BELOW 12,000 FEET WITH NO
SIGNIFICANT WEATHER AND/OR OBSTRUCTIONS TO VISIBILITY.

NOT ALL STATIONS ARE QUALITY CONTROLLED BY THE NATIONAL
WEATHER SERVICE. USE DATA WITH CAUTION...ESPECIALLY
DEWPOINT OBSERVATIONS.

SCZ027-030-031-034>040-042>050-311800-
...SOUTHEAST SOUTH CAROLINA...

CITY           SKY/WX    TMP DP  RH WIND       PRES   REMARKS
N CHARLESTON   PTSUNNY   85  73  67 W7        29.94F HX  91
WATERFRONT PRK   N/A     82  74  77 W6        29.92F
MOUNT PLEASANT LGT RAIN  84  73  70 W7        29.94F HX  91
JOHNS ISLAND   FAIR      84  77  79 CALM      29.95S HX  94
PINOPOLIS      NOT AVBL
MONCKS CORNER  FAIR      86  73  66 CALM      29.95F HX  93
SUMMERVILLE    CLOUDY    84  75  74 CALM      29.96F HX  92
BEAUFORT MCAS  PTSUNNY   88  78  72 CALM      29.94F HX 101
BEAUFORT ARPT  FAIR      86  77  74 S6        29.94F HX  97
HILTON HEAD IS PTSUNNY   81  77  89 CALM      29.97S THUNDER
WALTERBORO     PTSUNNY   88  75  66 NE5       29.96F HX  97
ALLENDALE      FAIR      90  73  58 VRB6      29.94F HX  98

...SOUTHERN MIDLANDS AND PEE DEE...

CITY           SKY/WX    TMP DP  RH WIND       PRES   REMARKS
GEORGETOWN     NOT AVBL
KINGSTREE      NOT AVBL
ORANGEBURG     PTSUNNY   90  66  45 E7        29.96F HX  92
BARNWELL       FAIR      90  72  55 E6        29.96F HX  96
AIKEN          FAIR      88  61  40 E7        30.01F
MANNING        RAIN      88  66  48 SE5       29.95F HX  90
COLUMBIA       MOSUNNY   91  63  39 NE13      29.96F HX  92
SUMTER         MOSUNNY   91  66  44 E6        29.94F HX  93
FLORENCE       MOSUNNY   91  68  46 N5        29.95F HX  95
MYRTLE BEACH   PTSUNNY   88  73  62 S10       29.96F HX  96
N MYRTLE BEACH CLOUDY    85  76  74 CALM      29.94F HX  94

$$

GAZ063-065-086>088-099>101-113>116-118-119-134>141-150-311800-
...SOUTHEAST GEORGIA...

CITY           SKY/WX    TMP DP  RH WIND       PRES   REMARKS
SAVANNAH ARPT  PTSUNNY   86  77  74 SW7       29.95F HX  97
HUNTER AAF     CLOUDY    85  79  84 S7        29.93F HX  98
FORT STEWART   PTSUNNY   89  76  64 E7        29.93F HX 100
STATESBORO     MOSUNNY   91  80  69 S3        29.95S HX 109
SYLVANIA       MOSUNNY   92  79  65 SE5       29.95F HX 109
CLAXTON        FAIR      88  77  70 CALM      29.95F HAZE    HX 100

...CSRA...CENTRAL AND FAR SOUTHEAST GEORGIA...

CITY           SKY/WX    TMP DP  RH WIND       PRES   REMARKS
THOMSON        SUNNY     92  72  52 E10       30.01F HX  99
AUGUSTA-BUSH   SUNNY     90  66  45 E9        29.96F HX  92
AUGUSTA-DANIEL SUNNY     90  66  45 E8        29.98F HX  92
SWAINSBORO     TSTM      79  77  94 E8        29.96S
VIDALIA        PTSUNNY   90  77  66 S6        29.96F HX 102
EASTMAN        FAIR      93  76  57 CALM      29.97F HX 106
HAZLEHURST     FAIR      90  76  64 CALM      29.95F HX 101
ALMA           MOSUNNY   88  75  65 CALM      29.95F HX  97
WAYCROSS       PTSUNNY   92  80  68 W5        29.96S HX 109
JESUP          PTSUNNY   90  79  70 W6        29.96F HX 105
BAXLEY         FAIR      90  77  66 CALM      29.95F HX 102
BRUNSWICK      MOSUNNY   90  73  58 W6        29.96F HX  98
SAINT SIMONS   PTSUNNY   87  75  67 MISG      29.96F HX  96

$$

SCZ027-028-034-036>038-045-046-048>050-GAZ119-141-311800-
...LAKE AND SUPPLEMENTAL COASTAL OBSERVATIONS...

STATION/POSITION TIME  TEMP    WIND        PRES    WAVE   SWELL
                       AIR SEA DIR/SP/G            HT/PER HT/PER/DIR
                 (UTC) (F)     (DEG/KT/KT) (MB)    (FT/S) (FT/S/D)
UPR LAKE MARION  NOT AVBL
WINYAH BAY       NOT AVBL
LAKE MURRAY      1600   85      20/  2/  9 1014.6S
ACE BASIN NERRS  NOT AVBL
FORT PULASKI     1600   80 86  130/  3/  5 1015.4R
SAPELO ISLAND    1600   88     210/  4     1015.0R

$$

ANZ835-935-AMZ111-154-330-350-352-354-370-450-454-472-311800-
...C-MAN AND BUOY OBSERVATIONS...

STATION/POSITION TIME  TEMP    WIND        PRES    WAVE   SWELL
                       AIR SEA DIR/SP/G            HT/PER HT/PER/DIR
                 (UTC) (F)     (DEG/KT/KT) (MB)    (FT/S) (FT/S/D)
BUOY 41004       1650   81 84  230/ 12/ 14 1013.6F   2/ 8   2/ 8
BUOY 41008       1650   81 83  200/  8/ 10 1015.1S   2/ 4   2/140/ 5
FOLLY BEACH CMAN 1600   82     220/ 12/ 16 1014.4F
CAPERS NEARSHORE 1608   82     250/ 16/ 21 1014.3F
FRIPP NEARSHORE  1600   81     190/ 10/ 12 1014.3S


STATION/POSITION TIME  TEMP    WIND        PRES    WAVE   SWELL
                       AIR SEA DIR/SP/G            HT/PER HT/PER/DIR
                 (UTC) (F)     (DEG/KT/KT) (MB)    (FT/S) (FT/S/D)
5E ST. MARYS GA  1621      85                N/A     2/11
FRYING PAN BUOY  1650   84 85  240/  6/  8 1013.8F   3/ 7   3/160/ 7
BUOY 41025       1650   82 86  360/  8/ 12 1012.4R   4/10   3/170/10
CAPE LOOKOUT NC  1600   87     120/  1/  2 1012.4R
BUOY 41002       1650   82 81  240/ 16/ 19 1015.7R   8/ 8   5/200/ 8
BUOY 41010       1620   84 84  230/ 16/ 19 1016.1F
ST AUGUSTINE FL  1700   80 82  150/  1/  3 1015.9S


$$


USA.gov is the U.S. government's official web portal to all federal, state and local government web resources and services.